Location: Estes Park
(40.3770°N, 105.5210°W)
Time: 23:58:30
(UTC-06:00)

Tiangong 2 - Pass Details

Date: 12 October 2017
Orbit: 388 x 392 km, 42.8° (Epoch: 16 October)

Event Time Altitude Azimuth Distance (km) Brightness Sun altitude
Exits shadow 04:48:31 18° 81° (E) 1,020 4.0 -27.6°
Drops below altitude 10° 04:49:31 10° 77° (ENE) 1,416 4.9 -27.4°
Sets 04:51:37 0° 74° (ENE) 2,273 6.3 -27.0°
